Tracking 22438 objects as of 25-Feb-2021
HD Live streaming from Space Station
objects crossing your sky now

DELTA 1 DEB

Track DELTA 1 DEB now!
10-day predictions


NORAD ID: 21335
Int'l Code: 1975-052BD
Perigee: 860.8 km
Apogee: 944.0 km
Inclination: 99.1 °
Period: 102.9 minutes
Semi major axis: 7273 km
RCS: 0.0706 m2 (small)
Launch date: June 12, 1975
Source: United States (US)
Launch site: AIR FORCE WESTERN TEST RANGE (AFWTR)

Note: This is SATELLITE DEBRIS
aabbcc
Your satellite tracking list
Your tracking list is empty




NASA's NSSDC Master Catalog

Two Line Element Set (TLE):
1 21335U 75052BD  21054.79639910  .00007004  00000-0  47575-2 0  9990
2 21335  99.1380 336.8700 0057227 305.5362 121.7998 13.99573566472093
Source of the keplerian elements: AFSPC